Regional Weather Roundup
Issued by NWS Little Rock, AR

Home | Current Version | Previous Version | Text Only | Print | Product List | Glossary Off
Versions: 1 2 3 4 5 6 7 8 9 10 11 12 13 14 15 16 17 18 19 20 21 22 23 24 25 26 27 28 29 30 31 32 33 34 35 36 37 38 39 40 41 42 43 44 45 46 47 48 49 50

000
ASUS44 KLZK 041905
RWRLZK

WEATHER ROUNDUP FOR ARKANSAS
NATIONAL WEATHER SERVICE LITTLE ROCK AR
100 PM CST WED MAR 04 2015

NOTE: "FAIR" INDICATES FEW OR NO CLOUDS BELOW 12,000 FEET WITH NO
SIGNIFICANT WEATHER AND/OR OBSTRUCTIONS TO VISIBILITY.

ARZ001-003-010-029-042000-
NORTHWEST ARKANSAS

CITY           SKY/WX    TMP DP  RH WIND       PRES   REMARKS
FAYETTEVILLE   MIX PCPN  26  23  88 N10       30.12R FOG     WCI  16
FORT SMITH     LGT RAIN  37  33  85 N12       30.07R
HARRISON       MIX PCPN  27  25  92 N13       30.09R VSB 3/4 WCI  16
BENTONVILLE    CLOUDY    25  19  80 N18G25    30.16R WCI  11
ROGERS         LGT SNOW  25  21  86 N16G22    30.15R FOG     WCI  12
SILOAM SPGS    CLOUDY    25  18  74 N17G25    30.16R WCI  11
HIGHFILL       LGT SNOW  25  21  85 N23G29    30.15R FOG     WCI  10
SPRINGDALE     LGT SNOW  27  23  86 NE14G25   30.14R VSB 1   WCI  15
$$

ARZ004-005-016-042000-
NORTH CENTRAL ARKANSAS

CITY           SKY/WX    TMP DP  RH WIND       PRES   REMARKS
BATESVILLE     CLOUDY    36  34  93 N6        30.05F
FLIPPIN        CLOUDY    27  21  80 CALM      30.13R
MTN HOME       MIX PCPN  26  25  96 VRB6      30.12R FOG     WCI  19
$$

ARZ040-041-042000-
WEST CENTRAL ARKANSAS

CITY           SKY/WX    TMP DP  RH WIND       PRES   REMARKS
MENA           CLOUDY    43  41  93 N5        29.97R
MOUNT IDA      RAIN      42  40  92 VRB5      29.95S FOG
$$

ARZ009-017-025-026-028-042000-
NORTHEAST ARKANSAS

CITY           SKY/WX    TMP DP  RH WIND       PRES   REMARKS
CORNING        RAIN      32  28  86 N18G28    30.12R WCI  20
JONESBORO      LGT RAIN  35  34  96 N14G21    30.06R FOG     WCI  26
WALNUT RIDGE   CLOUDY    34  28  80 N18G24    30.08R WCI  23
BLYTHEVILLE    LGT SNOW  34  32  92 N25G35    30.07R FOG     WCI  21
$$

ARZ022-023-033-042-044-042000-
CENTRAL ARKANSAS

CITY           SKY/WX    TMP DP  RH WIND       PRES   REMARKS
LITTLE ROCK    RAIN      42  40  92 N16       30.02R FOG
N LITTLE ROCK  CLOUDY    40  40 100 N10G23    30.01R
JACKSONVILLE   LGT RAIN  41  39  93 N10       30.02R
SEARCY         LGT RAIN  39  37  92 N12       30.05R
HOT SPRINGS    RAIN      42  39  89 NE13G20   29.99R FOG
RUSSELLVILLE   RAIN      38  35  89 N10       30.04R
$$

ARZ036-042000-
EAST ARKANSAS

CITY           SKY/WX    TMP DP  RH WIND       PRES   REMARKS
WEST MEMPHIS   LGT RAIN  37  36  96 N24G33    29.97F FOG
$$

ARZ050-053-066-070-073-042000-
SOUTHWEST ARKANSAS

CITY           SKY/WX    TMP DP  RH WIND       PRES   REMARKS
TEXARKANA      HVY RAIN  53  53 100 N10       29.90S FOG
EL DORADO      RAIN      60  59  96 N8        29.88R FOG
DE QUEEN       LGT RAIN  48  45  89 N8        29.93S
$$

ARZ056-057-069-042000-
SOUTHEAST ARKANSAS

CITY           SKY/WX    TMP DP  RH WIND       PRES   REMARKS
PINE BLUFF     RAIN      42  40  92 N22G31    29.98R FOG
STUTTGART      CLOUDY    37  36  93 N28       29.99R
MONTICELLO     LGT RAIN  47  44  90 VRB7G23   29.90R FOG

$$





USA.gov is the U.S. government's official web portal to all federal, state and local government web resources and services.